Content
SEND FEEDBACK

Daily
Averages
Monthly
Summary
United States of America

FORT BLISS, TEXAS


Home > North America > United States > Texas
Elevation: 3917 feet     Latitude: 31 48N     Longitude: 106 24W

WEATHER
 
SELECT A DAY
Number of Records: 172,213;   Date Range: 1/1/95 - 9/18/14
 
SHARE

PRINT THIS DATA

[ ← Previous Day ]
WEATHER ALMANAC - MAY 24, 2013
[ Next Day → ]
[ °C ]   °F
Weather ElementAverageHighLow
Temperature79.1 °F91.9 °F (4:51 pm)63 °F (4:51 am)
Dewpoint42.4 °F50 °F (2:51 am)32 °F (12:51 pm)
Humidity31.1 %60 % (4:51 am)13 % (3:51 pm)
Barometer29.79 in29.88 in (8:51 am)29.69 in (6:51 pm)
Wind Speed5.1 mph15 mph (7:51 pm)
Wind Gust28.8 mph (8:51 pm)
Weather ElementAverage
Visibility9.7 mi
Wind DirectionESE (114.8 °)

Weather ElementTotal
Precipitation---
Cooling Degree Days12.5 (Base 65)
Growing Degree Days27.5 (Base 50)
Averaged from 23 records on May 24, 2013
WEATHER CONDITIONS BREAKOUT
WIND DIRECTION BREAKOUT
WEATHER BY HOUR - MAY 24, 2013
[ °C ]   °F
Local TimeTemperatureDewpointHumidityBarometerVisibilityWind DirectionWind SpeedGust SpeedPrecipitationEventsConditions
1:51 AM70.0 °F48.9 °F47 %29.79 in10.0 miSSE (160°)9.2 mphScattered Clouds
2:51 AM68.0 °F50.0 °F52 %29.79 in10.0 miSouth (180°)4.6 mphClear
3:51 AM66.9 °F48.9 °F52 %29.79 in10.0 miSouth (170°)4.6 mphScattered Clouds
4:51 AM63.0 °F48.9 °F60 %29.81 in10.0 miEast (100°)4.6 mphScattered Clouds
5:51 AM64.9 °F48.9 °F56 %29.82 in10.0 miCalmScattered Clouds
6:51 AM66.9 °F48.9 °F52 %29.85 in10.0 miWest (270°)4.6 mphScattered Clouds
7:51 AM70.0 °F48.0 °F46 %29.87 in10.0 miCalmPartly Cloudy
8:51 AM73.0 °F48.9 °F42 %29.88 in10.0 miVariable5.8 mphPartly Cloudy
9:51 AM77.0 °F48.0 °F36 %29.88 in10.0 miSouth (170°)8.1 mphPartly Cloudy
10:51 AM79.0 °F46.0 °F31 %29.88 in10.0 miVariable4.6 mphPartly Cloudy
11:51 AM84.0 °F37.9 °F19 %29.86 in10.0 miEast (100°)3.5 mphPartly Cloudy
12:51 PM84.9 °F32.0 °F15 %29.83 in10.0 miCalmScattered Clouds
1:51 PM88.0 °F32.0 °F14 %29.80 in10.0 miVariable5.8 mphScattered Clouds
2:51 PM90.0 °F35.1 °F14 %29.77 in10.0 miSSE (150°)6.9 mphPartly Cloudy
3:51 PM91.0 °F34.0 °F13 %29.75 in10.0 miWest (260°)4.6 mphPartly Cloudy
4:51 PM91.9 °F35.1 °F13 %29.73 in10.0 miCalmPartly Cloudy
5:51 PM91.9 °F37.0 °F15 %29.70 in10.0 miCalmPartly Cloudy
6:51 PM91.9 °F36.0 °F14 %29.69 in10.0 miSE (130°)5.8 mphScattered Clouds
7:51 PM87.1 °F44.1 °F22 %29.72 in10.0 miSE (140°)15.0 mphScattered Clouds
8:51 PM82.9 °F43.0 °F24 %29.77 in4.0 miSouth (180°)15.0 mph28.8 mphWidespread Dust
9:51 PM82.9 °F37.9 °F20 %29.76 in10.0 miSouth (170°)8.1 mphScattered Clouds
10:51 PM78.1 °F41.0 °F27 %29.77 in10.0 miEast (100°)3.5 mphScattered Clouds
11:51 PM77.0 °F44.1 °F31 %29.76 in10.0 miNorth (360°)3.5 mphScattered Clouds
Hourly data recorded from KELP, located miles away from Fort Bliss, Texas







STORIES FROM OUR PARTNERS